Location: Coopersdale
(40.3556°N, 78.9372°W)
Time: 22:10:21
(UTC+00:00)

Courier 1B - Pass Details

Date: 22 January 2021
Orbit: 962 x 1209 km, 28.3° (Epoch: 25 February)

Event Time Altitude Azimuth Distance (km) Brightness Sun altitude
Exits shadow 09:56:37 18° 188° (S) 2,230 9.3 -29.6°
Drops below altitude 10° 10:00:01 10° 157° (SSE) 2,770 10.1 -29.0°
Sets 10:03:39 0° 140° (SE) 3,763 11.1 -28.3°
